Theta_e
348 345 342 337 336 333 331 330 334 336 330 329 329 332 338 332 337 338 336 338 340 338 333 332 332 332 333 332 334 336 335 334 336 338 334 338 338 339 335 335 339 345 338
348 347 343 342 339 337 339 339 333 333 329 329 329 330 331 336 338 335 338 339 339 339 339 339 338 338 338 338 338 337 337 335 335 337 331 333 339 336 335 338 346 340 335
349 346 344 343 341 340 340 341 340 334 331 331 331 331 334 331 332 332 336 341 340 338 338 340 338 339 340 341 340 338 338 333 335 336 339 346 346 339 333 337 339 337 336
348 350 345 342 341 342 342 340 341 341 340 339 336 338 338 335 337 336 338 334 336 335 340 338 338 341 341 341 340 341 338 335 337 335 345 344 348 336 335 335 337 336 337
348 349 346 341 341 339 340 340 340 340 339 338 332 331 333 336 335 331 341 343 335 335 339 338 337 338 340 340 339 340 340 338 336 340 345 345 346 340 332 335 336 336 337
347 347 341 339 337 336 336 338 337 336 331 330 332 331 336 340 340 332 341 341 338 338 340 341 341 338 337 337 338 338 338 334 335 343 345 337 347 342 334 332 340 339 338
347 346 333 332 331 329 329 330 330 331 332 332 334 339 341 342 337 343 337 335 338 341 333 337 340 341 337 336 338 338 338 337 345 345 345 344 343 337 335 332 334 334 335
347 347 346 330 331 332 333 333 334 341 334 333 334 336 339 338 337 338 338 340 333 334 339 339 340 339 339 338 341 342 338 340 345 347 346 348 338 333 334 337 332 333 335
347 347 347 346 334 340 336 339 340 338 334 335 336 338 340 338 337 341 335 332 337 342 341 338 334 336 332 336 341 342 341 341 349 348 347 345 338 332 336 338 335 336 334
345 346 347 347 348 349 348 342 343 333 334 336 337 340 331 331 330 329 331 333 337 333 332 332 334 336 334 331 336 342 342 340 349 348 348 348 343 338 332 337 336 337 337
345 344 346 349 348 351 347 340 332 338 333 332 334 332 339 348 349 347 343 338 338 341 342 340 335 331 333 336 337 333 336 345 348 347 346 344 343 341 338 339 337 334 335
346 345 346 347 346 347 344 346 347 349 352 345 345 349 350 350 348 349 346 344 344 344 344 343 339 333 332 346 348 341 339 343 344 344 346 345 341 341 340 339 338 337 336
346 346 346 348 348 345 345 345 346 348 349 350 349 349 349 350 348 353 350 351 349 348 344 344 345 350 347 342 341 342 339 330 340 341 344 341 342 340 340 340 340 339 338
345 345 346 347 348 346 346 344 345 347 348 349 350 346 347 350 350 348 350 350 350 352 348 351 352 349 349 346 344 343 347 343 334 339 338 332 338 340 340 338 336 340 339
345 345 345 346 347 347 346 347 347 348 348 349 350 349 351 351 352 351 347 350 349 352 351 351 352 350 348 348 349 344 343 347 344 341 340 337 335 339 339 340 338 338 339
342 343 344 345 338 343 346 344 348 349 350 351 351 351 347 351 352 351 347 351 349 351 350 349 347 346 348 349 348 347 340 345 347 346 346 345 337 338 340 340 337 337 339
340 341 343 344 345 335 345 343 348 349 349 350 351 348 346 347 350 346 348 349 351 349 346 348 346 347 346 345 346 346 348 348 347 350 348 348 349 347 344 342 337 343 339
340 340 342 342 347 346 346 345 348 349 350 351 351 351 348 348 346 347 349 350 344 347 349 347 347 345 346 345 345 348 346 348 351 350 350 347 350 349 348 343 344 344 343
345 341 341 342 343 346 341 347 348 349 351 352 351 352 347 345 345 348 352 351 347 349 347 346 346 345 343 345 346 344 344 350 351 350 350 349 348 348 346 346 344 343 343
349 347 343 344 343 345 347 344 347 350 352 352 353 353 347 346 346 347 350 349 350 349 346 345 345 344 346 345 347 349 346 350 351 349 349 350 349 351 348 347 344 344 344
350 349 349 342 345 343 344 349 349 350 350 351 352 347 346 347 346 346 353 350 349 347 335 343 343 341 343 343 346 349 349 349 347 347 346 348 349 349 349 349 348 345 346
350 351 351 347 340 344 347 349 351 352 351 351 352 349 345 346 346 347 348 350 343 344 340 328 325 339 340 341 342 347 346 344 345 347 348 347 346 344 344 343 342 341 346
349 351 350 344 345 343 347 349 346 349 348 351 351 349 346 346 346 347 346 350 337 338 340 332 333 328 337 338 334 346 346 345 344 344 344 342 340 340 341 342 341 337 339
347 349 351 346 343 344 344 350 348 351 351 351 352 350 353 347 347 347 346 343 335 341 330 337 336 336 334 335 337 339 341 343 343 344 342 340 339 339 338 338 338 335 331
345 347 349 347 344 343 344 347 349 349 351 352 352 352 348 348 348 346 344 337 334 341 329 334 338 336 338 335 333 336 339 338 339 337 338 340 339 337 336 336 335 334 332
345 347 349 345 343 342 343 344 345 351 352 352 352 345 345 347 351 345 344 338 333 334 332 339 334 333 330 328 332 333 336 337 338 335 335 338 339 340 336 334 331 330 327
Wind_Speed
13 18 19 21 22 24 24 24 23 21 23 21 20 18 16 15 14 14 14 13 13 14 14 15 13 9 10 9 7 5 4 5 6 7 6 8 9 9 9 11 12 12 12
17 17 18 17 20 21 20 19 20 20 20 20 18 15 13 13 11 11 10 11 12 11 11 10 10 10 10 9 7 6 4 6 6 5 7 8 8 8 10 13 13 11 12
17 20 19 18 18 18 17 15 15 16 15 13 12 12 11 10 10 9 8 9 9 9 10 9 9 10 9 8 8 7 5 8 5 6 12 7 5 7 9 11 11 10 11
19 17 17 18 17 17 16 13 13 12 11 10 9 10 10 9 8 7 7 7 7 8 7 8 7 8 9 8 8 7 8 8 5 7 7 7 5 5 6 8 8 8 9
19 17 18 18 17 15 15 12 11 10 8 7 6 8 7 8 6 6 7 8 8 9 6 8 7 7 8 8 8 8 8 8 7 7 6 6 8 4 6 6 6 8 10
19 17 19 16 15 14 12 12 9 8 6 6 6 6 6 6 6 7 7 9 8 8 7 7 6 6 6 7 7 7 7 7 7 6 6 4 5 6 4 7 8 8 8
18 16 18 16 15 14 12 10 8 6 5 4 6 6 6 6 5 6 6 6 6 7 6 6 6 5 6 5 6 6 6 7 5 6 5 4 4 6 4 6 7 7 7
18 15 15 16 14 12 10 9 7 6 4 5 6 6 4 4 4 5 5 5 5 5 5 5 4 3 3 5 5 4 6 6 4 3 4 3 4 4 4 4 6 6 6
17 15 14 13 13 10 7 7 6 5 5 5 5 5 3 4 4 3 3 3 4 4 2 2 3 3 3 4 5 5 6 5 4 4 2 2 4 3 5 6 6 6 7
16 15 14 13 10 9 7 8 6 4 4 5 4 3 2 4 3 4 4 2 1 2 1 1 2 2 3 4 5 6 5 2 2 2 3 5 4 3 3 5 6 6 6
15 14 13 12 11 9 8 6 7 6 5 5 4 2 5 3 2 1 2 0 1 1 1 2 4 3 3 2 5 6 5 3 3 3 4 7 5 4 3 7 7 6 6
16 15 14 13 12 11 8 7 7 5 3 4 6 4 3 2 1 4 1 2 2 2 2 2 2 5 5 4 6 7 8 7 7 7 7 8 4 5 3 4 6 6 7
16 15 14 14 13 11 9 8 6 5 5 2 4 4 2 2 2 3 3 4 6 6 5 5 5 6 6 8 9 8 13 12 9 7 9 8 5 9 7 7 7 7 8
17 16 15 13 13 12 9 8 7 7 5 5 4 4 2 3 1 2 2 4 6 6 7 6 8 9 10 10 11 10 9 12 13 15 12 11 8 10 10 13 12 10 11
16 16 15 14 13 12 12 9 9 8 6 4 4 2 2 2 1 3 6 4 5 5 5 7 7 7 8 8 10 13 13 14 15 12 11 13 10 12 12 11 17 18 13
16 16 15 15 15 13 11 12 9 8 7 6 4 3 1 0 3 5 7 5 6 4 5 6 7 8 7 7 8 13 13 13 15 13 11 12 13 14 16 19 19 23 21
16 16 16 16 15 14 13 12 9 8 6 5 4 4 3 3 5 6 6 6 4 5 6 8 6 7 5 7 9 9 14 11 7 7 7 8 8 13 17 17 17 12 24
15 17 17 16 15 15 14 12 9 8 7 6 5 4 4 4 4 5 6 6 5 4 4 5 6 6 7 7 7 9 8 3 4 5 7 6 8 8 11 15 13 9 6
15 16 16 17 15 14 16 13 11 9 7 6 5 3 4 4 3 3 3 3 4 2 4 4 6 6 6 5 7 5 3 3 2 2 3 6 7 6 9 10 9 8 10
16 15 16 16 16 15 13 15 11 9 8 7 5 5 4 4 3 4 2 2 3 4 4 3 4 4 3 5 4 3 4 1 3 2 1 3 4 4 2 3 4 6 10
18 17 17 20 19 18 18 13 12 10 8 8 7 9 6 4 4 4 1 2 2 1 2 3 3 4 2 4 2 4 6 6 5 5 4 4 4 4 6 6 3 5 6
21 20 20 20 21 21 17 15 12 10 9 8 9 10 7 7 5 3 4 3 2 1 3 4 3 1 2 2 1 1 3 4 5 4 4 3 5 4 5 7 8 8 7
22 22 22 24 23 22 20 17 17 14 14 10 9 9 8 6 5 4 4 5 1 3 1 3 3 2 1 2 0 2 2 2 5 1 3 3 5 4 5 7 8 10 11
23 21 21 21 26 25 25 20 19 14 10 8 7 7 8 6 5 4 4 3 2 2 2 3 4 5 5 1 2 1 2 5 4 4 1 2 5 6 5 6 7 10 12
22 20 19 21 23 25 24 23 21 18 13 9 8 10 9 6 5 4 5 4 2 3 2 2 4 4 3 2 1 1 2 2 2 3 2 3 2 3 4 5 7 9 11
21 20 19 20 20 23 23 22 24 19 16 10 8 8 9 7 5 5 5 5 3 3 2 2 3 4 3 2 2 3 2 2 2 4 4 3 3 2 2 5 7 9 10
Wind_Direction
134 131 133 129 127 125 121 119 117 117 114 113 105 105 104 108 114 112 116 125 127 134 146 154 161 157 157 163 172 164 154 149 127 105 99 99 102 110 111 119 110 140 136
137 137 135 141 137 134 129 125 124 123 117 106 99 94 101 104 105 105 101 109 127 141 151 158 169 166 169 175 175 171 172 168 143 103 93 87 101 114 127 129 132 155 141
140 143 141 141 147 146 144 137 131 126 120 108 96 87 92 103 108 103 98 103 108 114 122 142 172 184 176 170 180 174 164 158 152 111 95 110 129 125 135 141 152 145 144
139 143 143 142 142 149 146 146 142 132 122 111 100 88 85 88 97 102 102 98 122 120 113 124 135 148 159 155 153 152 155 153 136 117 98 124 131 111 115 130 139 143 147
139 143 157 146 149 147 141 148 147 139 128 116 112 83 88 88 93 113 113 105 92 108 117 111 114 118 133 148 149 149 147 149 140 111 137 135 137 151 124 137 138 141 139
143 149 152 151 152 153 153 159 150 136 130 132 95 93 95 95 101 104 112 106 101 114 107 105 104 107 122 133 140 148 147 138 106 137 123 124 136 180 146 154 170 166 163
144 153 151 155 158 156 158 151 138 137 149 126 112 99 101 101 106 106 107 103 111 112 115 125 113 119 120 138 143 159 160 128 124 133 138 134 153 169 172 176 177 183 177
149 151 158 158 158 154 160 148 143 142 139 121 112 115 99 101 112 106 108 98 99 126 125 126 130 141 132 148 148 144 170 154 132 176 180 173 239 183 178 157 174 186 184
151 159 157 160 159 154 149 136 157 149 129 119 126 116 126 116 98 107 92 106 128 122 107 134 156 173 169 183 171 158 154 169 157 183 158 186 224 192 189 175 193 180 189
161 165 160 162 159 160 168 155 164 151 146 134 142 127 110 76 75 64 55 360 68 78 118 300 222 210 200 196 199 199 200 159 203 216 217 212 242 199 198 192 184 195 200
168 168 163 162 163 154 170 182 163 157 133 147 144 144 76 108 67 43 265 357 75 124 10 301 280 268 254 282 280 243 227 261 211 245 250 254 251 228 207 206 207 213 217
174 172 169 167 170 168 164 175 164 171 168 164 174 128 131 124 140 98 119 28 15 23 23 12 312 290 298 239 295 279 265 213 257 253 253 260 262 207 220 234 215 216 229
178 176 177 173 173 168 170 167 163 156 155 161 157 129 131 115 23 39 8 329 327 315 312 295 290 306 259 250 244 249 252 261 239 243 252 262 244 225 238 236 234 227 232
181 181 179 184 182 172 174 163 169 166 163 152 180 132 134 71 349 22 305 308 328 293 286 293 272 258 258 269 269 262 266 276 249 239 256 254 250 251 230 229 231 237 226
186 184 185 186 187 184 175 176 168 167 162 158 155 166 175 149 299 327 327 319 305 306 310 308 276 277 278 276 270 275 270 259 265 251 235 250 243 254 254 240 238 241 242
189 189 187 188 190 184 182 178 181 175 180 178 188 202 71 186 308 319 334 334 313 318 315 311 288 288 311 302 292 293 286 270 254 232 236 268 251 256 260 252 252 244 238
194 192 189 189 193 184 188 188 188 194 190 199 218 249 280 291 303 336 330 336 325 296 328 330 330 312 315 310 306 296 280 281 241 232 245 243 272 267 259 257 274 284 236
190 196 192 192 196 194 191 193 195 202 208 215 227 250 300 288 287 315 341 319 325 349 344 340 322 328 318 303 309 298 304 328 190 221 249 259 249 249 268 263 272 284 250
194 197 198 198 198 201 199 195 196 214 217 226 227 243 268 309 298 330 308 310 341 334 334 331 323 333 315 323 326 326 353 122 180 234 240 252 253 267 243 268 273 265 261
203 202 200 202 198 201 204 205 210 218 225 229 226 236 279 290 286 330 292 293 8 344 339 316 318 318 346 334 360 332 44 169 157 210 12 3 10 341 337 347 335 298 279
207 209 210 205 205 206 210 211 216 222 229 226 225 240 276 260 281 295 227 312 360 342 292 339 336 322 332 335 340 83 87 80 96 84 64 69 50 35 21 25 22 339 314
207 211 212 215 214 212 211 212 214 220 225 222 231 241 251 252 273 271 214 213 215 281 326 338 15 275 321 344 22 200 137 120 82 72 83 76 82 65 54 36 31 19 8
209 213 217 223 223 222 212 216 228 232 237 243 244 239 236 244 263 268 235 195 239 129 317 36 27 71 304 332 124 231 248 150 163 56 67 82 80 71 55 42 38 27 27
210 213 217 225 228 228 223 219 224 222 231 239 239 229 230 240 242 250 220 216 161 151 124 75 51 69 83 339 309 291 237 231 260 183 113 43 56 59 66 46 35 15 13
205 210 218 224 225 228 229 222 232 231 237 236 228 223 218 234 232 229 214 207 195 134 142 110 55 53 24 51 12 265 282 272 261 265 212 189 249 34 52 44 25 13 5
202 204 211 225 224 228 234 234 232 229 224 225 235 240 233 229 212 233 220 219 204 192 141 93 34 21 12 11 61 93 174 231 287 284 274 264 245 331 30 26 22 9 360